Regional Weather Roundup
Issued by NWS Bismarck, ND

Home | Current Version | Previous Version | Text Only | Print | Product List | Glossary On
Versions: 1 2 3 4 5 6 7 8 9 10 11 12 13 14 15 16 17 18 19 20 21 22 23 24 25 26 27 28 29 30 31 32 33 34 35 36 37 38 39 40 41 42 43 44 45 46 47 48 49 50
000
ASUS43 KBIS 271302
RWRBIS

NWR BROADCAST TEXT
NATIONAL WEATHER SERVICE BISMARCK ND
800 AM CDT WED MAY 27 2015

NOTE: "FAIR" INDICATES FEW OR NO CLOUDS BELOW 12,000 FEET WITH NO
SIGNIFICANT WEATHER AND/OR OBSTRUCTIONS TO VISIBILITY.


CITY           SKY/WX    TMP DP  RH WIND       PRES   REMARKS
WILLISTON      SUNNY     59  47  64 CALM      29.93S
MINOT          MOSUNNY   59  48  67 E5        29.95R
MINOT AFB      MOSUNNY   62  56  83 CALM      29.94R
BISMARCK       SUNNY     59  50  72 W3        29.96S
DICKINSON      MOSUNNY   57  47  69 SE5       29.95R
GARRISON         N/A     60  52  74 CALM      29.94S
HETTINGER ARPT MOSUNNY   56  47  71 CALM      29.98S
JAMESTOWN      SUNNY     62  51  67 N6        29.95R
CARRINGTON     FAIR      59  55  88 W5        29.96R
HAZEN          FAIR      57  48  72 SW3       29.96S
OAKES            N/A     59  54  82 NW6       29.95R
STANLEY        FAIR      63  52  67 W7        29.95S
$$

CITY           SKY/WX    TMP DP  RH WIND       PRES   REMARKS
GRAND FORKS    PTSUNNY   56  45  66 N14       29.92R
GRAND FORKS AF MOSUNNY   56  45  66 N14       29.93R
DEVILS LAKE    SUNNY     57  48  72 NE9       29.94S
FARGO          SUNNY     61  51  70 NW7       29.90R
CAVALIER       FAIR      52  45  76 N14       29.95R
GRAFTON        FAIR      55  45  67 N16       29.94R
LANGDON        FAIR      52  45  76 N13       29.96S
ROLLA          FAIR      50  41  71 NE13      29.99S
WALHALLA         N/A     52  46  82 MISG      29.97R
$$

CITY           SKY/WX    TMP DP  RH WIND       PRES   REMARKS
ABERDEEN       SUNNY     62  53  72 W5        29.96R
MOBRIDGE       SUNNY     59  55  87 SE5       29.95S
RAPID CITY     CLOUDY    55  52  89 SE5       29.99S
GLASGOW        PTSUNNY   58  53  84 S6        29.94R
SIDNEY         MOSUNNY   55  48  76 CALM      29.93S
WOLF POINT     CLOUDY    58  49  72 CALM      29.93R
GLENDIVE       PTSUNNY   57  48  72 CALM      29.94R
MILES CITY     CLOUDY    56  51  84 CALM      29.92R
BAKER          PTSUNNY   52  48  86 SE8       29.95F
$$

CITY           SKY/WX    TMP DP  RH WIND       PRES   REMARKS
BILLINGS       PTSUNNY   52  50  93 SW3       29.99S
GREAT FALLS    CLOUDY    50  48  93 SW9       30.02S
$$




USA.gov is the U.S. government's official web portal to all federal, state and local government web resources and services.